Location: Hains Lake
(37.8540°N, 99.8578°W)
Time: 15:03:35
(UTC+00:00)

deb Explorer IX - All Passes

Search period start: 19 April 2021 00:00
Search period end: 29 April 2021 00:00
Orbit: 540 x 1099 km, 38.8° (Epoch: 19 April)

Date Brightness Start Highest point End Pass type
(mag) Time Alt. Az. Time Alt. Az. Time Alt. Az.
19 Apr - 13:03:04 10° SW 13:06:52 34° SSE 13:11:04 10° E daylight
19 Apr - 14:48:53 10° WSW 14:53:20 89° S 14:58:33 10° E daylight
19 Apr - 16:35:26 10° W 16:40:21 85° N 16:46:09 10° E daylight
19 Apr - 18:22:02 10° W 18:27:17 53° SSW 18:33:26 10° SE daylight
19 Apr - 20:09:52 10° WSW 20:13:56 19° SW 20:18:20 10° S daylight
20 Apr - 12:39:30 10° SW 12:43:13 33° SSE 12:47:17 10° E daylight
20 Apr - 14:25:20 10° WSW 14:29:41 89° S 14:34:42 10° E daylight
20 Apr - 16:11:53 10° W 16:16:38 85° N 16:22:15 10° E daylight
20 Apr - 17:58:27 10° W 18:03:32 52° SSW 18:09:29 10° SE daylight
20 Apr - 19:46:18 10° WSW 19:50:09 18° SW 19:54:19 10° S daylight
21 Apr - 12:15:55 10° SW 12:19:36 33° SSE 12:23:32 10° E daylight
21 Apr - 14:01:47 10° WSW 14:06:02 89° S 14:10:53 10° E daylight
21 Apr - 15:48:19 10° W 15:52:56 84° N 15:58:22 10° E daylight
21 Apr - 17:34:53 10° W 17:39:47 50° SSW 17:45:32 10° SE daylight
21 Apr - 19:22:46 10° WSW 19:26:22 17° SW 19:30:17 10° S daylight
22 Apr - 11:52:20 10° SW 11:55:58 32° SSE 11:59:48 10° E daylight
22 Apr - 13:38:13 10° WSW 13:42:23 89° SSW 13:47:05 10° E daylight
22 Apr - 15:24:46 10° W 15:29:16 84° N 15:34:30 10° E daylight
22 Apr - 17:11:20 10° W 17:16:03 49° SSW 17:21:37 10° SE daylight
22 Apr - 18:59:14 10° WSW 19:02:36 16° SW 19:06:15 10° S daylight
23 Apr - 11:28:43 10° SW 11:32:21 32° SSE 11:36:06 10° E daylight
23 Apr - 13:14:38 10° W 13:18:46 90° SSW 13:23:18 10° E daylight
23 Apr - 15:01:13 10° W 15:05:36 84° N 15:10:38 10° E daylight
23 Apr - 16:47:46 10° W 16:52:21 48° SSW 16:57:42 10° SE daylight
23 Apr - 18:35:44 10° WSW 18:38:51 16° SW 18:42:14 10° S daylight
24 Apr - 11:05:05 10° SW 11:08:44 32° SSE 11:12:26 10° E visible
24 Apr - 12:51:04 10° W 12:55:09 90° S 12:59:34 10° E daylight
24 Apr - 14:37:39 10° W 14:41:57 84° N 14:46:49 10° E daylight
24 Apr - 16:24:13 10° W 16:28:39 47° SSW 16:33:48 10° SE daylight
24 Apr - 18:12:16 10° WSW 18:15:07 15° SW 18:18:11 10° S daylight
25 Apr - 10:41:26 10° SW 10:45:06 32° SSE 10:48:47 10° E visible
25 Apr - 12:27:28 10° W 12:31:32 90° E 12:35:50 10° E daylight
25 Apr - 14:14:06 10° W 14:18:18 84° N 14:23:01 10° E daylight
25 Apr - 16:00:40 10° W 16:04:58 46° SSW 16:09:56 10° SE daylight
25 Apr - 17:48:49 10° WSW 17:51:23 14° SW 17:54:09 10° S daylight
26 Apr - 10:17:45 10° SW 10:21:29 33° SSE 10:25:09 10° E visible
26 Apr - 12:03:51 10° W 12:07:55 90° NNW 12:12:08 10° E daylight
26 Apr - 13:50:32 10° W 13:54:40 84° N 13:59:14 10° E daylight
26 Apr - 15:37:07 10° W 15:41:18 44° SSW 15:46:04 10° SE daylight
26 Apr - 17:25:24 10° WSW 17:27:41 13° SW 17:30:06 10° S daylight
27 Apr - 09:54:03 10° SW 09:57:52 33° SSE 10:01:32 10° E visible
27 Apr - 11:40:14 10° W 11:44:18 90° N 11:48:27 10° E daylight
27 Apr - 13:26:57 10° W 13:31:02 84° N 13:35:29 10° E daylight
27 Apr - 15:13:34 10° W 15:17:39 43° SSW 15:22:14 10° SE daylight
27 Apr - 17:02:01 10° WSW 17:03:59 12° SW 17:06:03 10° S daylight
28 Apr - 09:30:19 10° SW 09:34:14 34° SSE 09:37:56 10° E visible
28 Apr - 11:16:35 10° W 11:20:42 90° N 11:24:48 10° E visible
28 Apr - 13:03:21 10° W 13:07:26 84° N 13:11:45 10° E daylight
28 Apr - 14:50:01 10° W 14:54:00 42° SSW 14:58:25 10° SE daylight
28 Apr - 16:38:40 10° SW 16:40:18 12° SW 16:41:58 10° SSW daylight
